Temp
15 15 13 13 12 13 13 13 13 13 13 12 11 10 10 9 8 8 9 9 8 8 9 9 8 5 5 6 9 10 10 10 11 11 11 11 11 10 10 9 9 10 11
14 14 14 13 12 12 12 12 12 12 13 12 11 9 8 8 7 7 7 8 8 8 8 8 8 7 5 9 9 9 9 9 9 10 11 11 11 10 10 10 10 9 10
14 14 14 14 13 13 13 13 12 11 11 9 10 9 9 8 8 6 6 6 6 7 8 8 8 8 8 8 8 8 9 9 9 9 10 10 10 10 10 10 10 11 11
14 14 14 13 14 13 13 12 12 10 9 9 8 7 7 8 8 7 6 5 5 5 7 8 8 7 7 7 7 8 8 8 8 8 9 9 9 9 9 9 10 9 9
14 14 13 13 13 13 13 12 10 9 9 8 7 7 6 6 5 5 6 7 6 5 7 7 7 7 7 7 7 7 7 7 7 8 8 8 8 8 9 9 9 9 9
14 13 13 13 13 13 12 12 11 9 9 8 7 7 6 6 5 5 5 4 6 6 5 6 5 5 4 7 7 6 7 6 7 7 7 7 8 8 8 8 8 8 8
13 13 13 13 12 12 12 12 11 10 8 8 8 7 6 6 6 5 4 4 4 5 5 5 2 3 2 5 6 6 6 6 6 6 7 7 7 7 7 7 7 7 7
13 12 13 12 12 12 12 11 11 10 9 8 7 7 6 5 5 5 4 4 4 3 3 5 4 3 2 4 5 5 6 6 6 6 6 6 7 7 7 6 7 7 7
12 12 12 12 11 12 12 11 10 9 10 9 8 8 8 8 6 5 5 4 5 4 3 3 4 3 3 2 3 4 4 5 5 5 5 6 6 6 6 6 6 6 7
11 11 11 11 11 11 11 10 9 8 7 9 8 8 8 8 8 5 4 4 4 4 3 1 1 1 1 1 3 3 2 3 4 5 5 5 5 6 6 6 5 5 6
10 10 10 10 10 10 10 10 9 9 7 7 8 8 8 8 8 7 5 4 3 3 3 2 1 -0 -1 -1 1 2 3 3 3 4 4 4 4 4 5 4 4 4 5
9 9 9 10 9 10 10 10 9 8 7 6 6 6 6 6 6 6 6 5 4 2 2 2 0 -1 -1 -2 1 2 1 3 4 3 3 2 3 3 4 4 4 3 4
8 9 9 8 8 8 9 9 8 8 7 7 6 6 5 5 5 5 5 4 4 3 2 2 0 -0 -1 -2 -1 -1 -0 1 2 2 1 1 2 2 2 3 3 3 2
7 8 7 6 7 7 7 7 7 7 6 6 6 6 5 5 5 4 3 3 2 2 2 2 1 -0 -1 -1 -2 -2 -2 -1 1 1 1 1 1 1 2 1 1 1 1
6 5 6 5 5 5 5 6 6 6 6 5 5 4 4 4 4 3 2 2 1 1 3 1 1 -0 -1 -2 -2 -2 -2 -1 -2 -1 -0 0 0 0 0 1 1 1 0
4 3 3 3 3 3 4 4 4 4 4 4 3 3 2 4 3 2 2 2 0 -1 -0 1 -0 -1 -1 -1 -2 -3 -1 -1 -1 -4 -4 -3 -3 -2 -1 -1 -1 -0 -0
4 3 3 3 4 3 3 3 3 3 3 3 3 2 4 3 2 1 1 1 -1 -2 -2 -1 -2 -2 -3 -3 -3 -2 -2 -2 -4 -5 -5 -5 -5 -4 -3 -4 -2 -2 -2
4 3 3 2 3 3 2 2 2 2 2 2 2 3 2 1 -0 -1 -1 -2 -3 -3 -3 -3 -3 -3 -4 -4 -4 -5 -4 -4 -4 -3 -5 -6 -6 -6 -6 -6 -6 -6 -5
3 3 2 2 1 1 0 1 1 1 1 1 1 2 1 -0 -0 -3 -3 -4 -4 -4 -4 -4 -4 -4 -4 -4 -5 -5 -6 -6 -6 -6 -6 -6 -7 -8 -8 -8 -7 -8 -8
3 2 2 1 0 0 0 1 0 -0 0 -0 1 0 -1 -1 -3 -5 -5 -5 -5 -5 -5 -5 -5 -5 -5 -5 -6 -6 -7 -7 -7 -6 -6 -7 -8 -8 -8 -7 -9 -9 -9
2 2 1 -1 -1 -2 -1 -0 -1 -1 -1 -1 -1 -2 -2 -3 -3 -3 -3 -4 -5 -5 -6 -6 -6 -7 -7 -7 -7 -8 -8 -8 -6 -6 -9 -9 -6 -8 -8 -9 -9 -10 -10
1 1 -0 -1 -2 -2 -1 -2 -2 -2 -2 -2 -2 -3 -4 -3 -4 -4 -5 -5 -5 -5 -5 -6 -6 -7 -7 -8 -10 -10 -9 -9 -10 -8 -10 -9 -8 -10 -11 -11 -11 -11 -11
0 0 -1 -2 -3 -3 -3 -3 -4 -3 -4 -4 -4 -6 -5 -5 -4 -5 -5 -6 -6 -6 -6 -7 -7 -7 -8 -9 -10 -10 -10 -11 -11 -11 -13 -11 -11 -12 -12 -12 -12 -12 -11
-0 -1 -2 -3 -3 -3 -3 -4 -5 -5 -5 -6 -7 -7 -8 -6 -4 -5 -6 -6 -6 -8 -8 -9 -9 -9 -10 -10 -11 -11 -12 -13 -13 -13 -13 -13 -12 -13 -14 -13 -12 -11 -12
-2 -2 -3 -4 -3 -3 -5 -5 -5 -6 -6 -7 -8 -7 -7 -8 -7 -7 -7 -8 -8 -9 -10 -11 -11 -11 -11 -11 -12 -14 -13 -14 -14 -14 -14 -14 -14 -14 -15 -14 -12 -13 -14
-2 -3 -4 -4 -4 -5 -5 -5 -6 -6 -7 -8 -9 -9 -8 -9 -8 -8 -9 -9 -9 -10 -9 -10 -11 -11 -11 -12 -13 -13 -13 -14 -14 -14 -15 -15 -15 -16 -16 -16 -15 -14 -15
Height
1516 1519 1521 1525 1527 1528 1529 1530 1531 1531 1532 1533 1534 1535 1537 1536 1531 1533 1534 1533 1533 1532 1532 1531 1531 1530 1529 1527 1526 1524 1524 1523 1522 1522 1521 1521 1520 1521 1520 1519 1519 1520 1521
1514 1515 1518 1521 1523 1526 1527 1528 1529 1529 1529 1531 1532 1533 1534 1534 1533 1531 1531 1532 1532 1532 1531 1531 1530 1529 1528 1527 1526 1525 1523 1522 1521 1519 1518 1518 1517 1518 1519 1518 1518 1518 1519
1510 1513 1515 1517 1520 1521 1523 1525 1527 1528 1528 1528 1529 1531 1532 1531 1532 1532 1530 1530 1530 1530 1529 1529 1528 1527 1527 1527 1526 1525 1523 1521 1520 1518 1517 1516 1516 1515 1514 1515 1516 1514 1515
1507 1509 1512 1514 1516 1519 1521 1523 1524 1525 1527 1528 1528 1529 1529 1529 1530 1530 1530 1530 1529 1528 1528 1527 1527 1526 1526 1526 1525 1524 1522 1521 1519 1518 1517 1516 1514 1513 1514 1513 1512 1513 1511
1503 1506 1509 1510 1513 1516 1517 1519 1521 1524 1525 1527 1528 1528 1528 1528 1528 1528 1528 1528 1529 1529 1526 1525 1525 1524 1524 1524 1524 1523 1521 1520 1519 1517 1516 1514 1513 1512 1511 1512 1509 1510 1509
1499 1501 1504 1507 1509 1512 1514 1515 1517 1520 1523 1524 1526 1526 1527 1528 1527 1527 1528 1527 1527 1526 1525 1524 1524 1523 1523 1522 1522 1521 1520 1519 1517 1515 1514 1514 1512 1510 1510 1510 1508 1507 1506
1494 1496 1498 1503 1505 1507 1510 1512 1514 1516 1519 1522 1522 1524 1525 1526 1526 1526 1527 1526 1526 1524 1524 1524 1524 1522 1521 1519 1520 1519 1518 1517 1517 1514 1512 1511 1509 1508 1508 1508 1507 1505 1503
1488 1491 1494 1499 1501 1502 1505 1508 1510 1513 1515 1517 1519 1522 1523 1525 1524 1525 1525 1525 1525 1524 1522 1522 1522 1522 1522 1521 1519 1518 1517 1516 1514 1512 1512 1510 1507 1507 1507 1507 1505 1503 1501
1483 1486 1489 1493 1495 1497 1501 1504 1507 1508 1511 1513 1515 1518 1519 1518 1520 1522 1523 1522 1522 1521 1522 1521 1521 1521 1520 1519 1518 1517 1516 1515 1512 1510 1509 1511 1505 1506 1506 1506 1503 1502 1498
1478 1481 1484 1487 1490 1493 1495 1499 1502 1505 1506 1509 1512 1513 1513 1514 1517 1519 1520 1519 1520 1518 1520 1521 1520 1519 1519 1518 1516 1516 1515 1515 1513 1508 1507 1506 1504 1503 1503 1502 1501 1500 1497
1473 1475 1478 1481 1484 1486 1489 1493 1496 1499 1502 1504 1507 1509 1510 1511 1512 1513 1514 1516 1517 1517 1517 1518 1519 1519 1518 1517 1516 1516 1515 1512 1514 1509 1505 1505 1500 1500 1498 1499 1497 1497 1494
1466 1469 1472 1475 1478 1480 1483 1486 1491 1495 1497 1499 1503 1505 1507 1508 1508 1510 1513 1514 1515 1516 1516 1516 1517 1517 1516 1515 1512 1511 1512 1510 1508 1508 1505 1501 1497 1498 1495 1494 1494 1493 1491
1457 1462 1465 1470 1472 1475 1478 1480 1484 1488 1492 1495 1498 1500 1501 1503 1505 1505 1508 1509 1512 1515 1515 1515 1515 1515 1514 1513 1511 1510 1509 1508 1504 1504 1502 1500 1496 1494 1493 1490 1489 1489 1488
1454 1456 1462 1467 1467 1470 1474 1477 1479 1484 1487 1489 1491 1494 1497 1498 1500 1502 1504 1505 1509 1512 1513 1513 1513 1513 1511 1510 1509 1506 1506 1504 1503 1501 1500 1495 1494 1489 1489 1488 1485 1484 1483
1451 1454 1456 1460 1465 1469 1470 1474 1476 1478 1481 1484 1487 1489 1491 1493 1496 1499 1500 1500 1506 1509 1511 1513 1513 1511 1510 1508 1508 1505 1503 1502 1501 1498 1496 1491 1491 1487 1484 1483 1481 1479 1477
1446 1449 1454 1455 1461 1465 1467 1471 1472 1474 1477 1481 1483 1486 1488 1488 1493 1496 1496 1497 1502 1504 1505 1507 1508 1508 1507 1504 1505 1504 1498 1498 1498 1497 1493 1489 1486 1483 1480 1479 1478 1475 1473
1440 1444 1448 1450 1454 1460 1464 1467 1468 1471 1473 1477 1480 1482 1483 1486 1490 1493 1493 1494 1497 1500 1500 1501 1501 1502 1504 1500 1499 1499 1498 1497 1494 1495 1491 1485 1482 1478 1476 1474 1473 1470 1468
1434 1438 1442 1445 1448 1452 1459 1461 1464 1467 1468 1472 1476 1478 1480 1483 1486 1489 1490 1492 1493 1496 1497 1496 1495 1498 1498 1497 1495 1493 1495 1494 1490 1487 1487 1481 1477 1474 1470 1469 1467 1465 1462
1427 1431 1436 1441 1444 1448 1452 1456 1459 1461 1464 1469 1472 1473 1478 1481 1483 1487 1487 1488 1489 1491 1495 1495 1494 1495 1495 1493 1489 1489 1491 1491 1487 1482 1481 1477 1474 1469 1467 1464 1462 1460 1458
1423 1426 1432 1436 1440 1445 1448 1451 1455 1458 1460 1467 1468 1470 1473 1476 1480 1482 1485 1486 1487 1488 1490 1490 1489 1491 1490 1490 1485 1484 1483 1483 1479 1475 1474 1471 1468 1463 1460 1459 1456 1455 1454
1418 1424 1428 1433 1439 1441 1444 1447 1452 1455 1458 1461 1463 1465 1469 1473 1476 1477 1479 1480 1481 1482 1485 1486 1485 1486 1486 1485 1481 1478 1477 1473 1471 1468 1464 1462 1459 1456 1452 1450 1449 1449 1446
1414 1419 1423 1427 1432 1436 1441 1445 1447 1450 1452 1458 1461 1463 1466 1469 1471 1474 1475 1476 1477 1478 1480 1481 1481 1481 1480 1481 1479 1473 1472 1469 1461 1462 1456 1452 1451 1446 1444 1442 1441 1439 1438
1409 1413 1418 1423 1430 1433 1437 1440 1442 1446 1448 1452 1456 1459 1462 1464 1467 1469 1470 1471 1473 1473 1475 1475 1476 1474 1475 1476 1474 1468 1466 1463 1459 1456 1453 1442 1443 1439 1436 1433 1432 1431 1428
1404 1408 1412 1418 1424 1430 1434 1436 1439 1443 1445 1448 1452 1457 1460 1462 1463 1464 1465 1466 1468 1468 1469 1469 1470 1469 1469 1470 1468 1464 1461 1459 1453 1449 1449 1439 1436 1430 1426 1424 1423 1421 1418
1402 1405 1409 1414 1422 1427 1431 1435 1438 1441 1444 1445 1448 1453 1457 1457 1458 1459 1461 1462 1464 1466 1463 1463 1465 1465 1464 1465 1462 1458 1457 1454 1445 1444 1442 1436 1429 1421 1417 1413 1413 1412 1410
1398 1403 1409 1416 1420 1424 1429 1434 1437 1440 1443 1445 1448 1450 1453 1454 1456 1457 1459 1460 1459 1459 1459 1460 1461 1459 1459 1458 1457 1455 1453 1447 1443 1436 1436 1432 1425 1422 1407 1404 1406 1405 1398
Wind_Speed
20 16 14 10 8 9 10 9 6 6 6 6 6 6 13 10 9 7 5 6 6 6 7 6 7 9 10 8 12 14 15 15 15 16 16 16 14 14 15 14 13 14 17
22 20 17 17 16 11 9 9 7 7 7 6 7 8 8 10 8 5 7 7 6 6 6 7 7 6 7 11 13 13 14 14 14 14 15 16 15 14 14 14 16 16 16
23 20 19 18 16 16 13 11 11 9 8 6 5 6 6 6 7 8 4 7 7 7 6 7 7 7 10 12 12 12 12 13 14 15 16 17 17 16 14 14 13 16 21
24 22 21 19 17 14 14 13 11 9 6 4 5 7 6 3 2 3 6 4 4 7 7 7 8 8 9 11 12 12 13 13 14 15 15 16 18 19 19 18 16 15 16
27 25 22 22 17 17 16 14 13 11 12 11 10 10 6 3 4 4 1 1 2 2 6 7 7 8 11 11 11 12 13 14 15 17 17 17 18 18 19 19 17 16 17
29 27 25 22 20 19 17 17 17 16 12 12 9 9 10 9 8 5 1 4 3 1 2 5 7 9 13 11 10 11 13 15 16 16 18 19 20 20 21 21 20 18 16
31 30 28 23 23 20 19 19 18 19 19 18 17 10 9 8 7 6 5 6 1 5 4 2 4 3 10 14 12 10 12 13 14 15 16 17 19 20 21 21 22 21 19
34 32 28 25 25 23 23 21 19 19 19 18 12 5 7 6 9 8 8 8 4 2 6 6 4 5 8 10 11 9 9 10 11 12 14 15 17 19 21 22 22 22 21
34 33 30 28 28 27 23 23 21 20 18 19 18 13 8 7 11 10 10 10 7 7 5 7 6 6 4 8 10 9 10 12 12 13 15 16 16 18 21 22 23 23 22
34 35 32 31 30 27 26 25 24 20 17 16 21 21 13 11 8 9 10 10 8 7 5 5 8 8 7 7 13 12 13 15 17 16 16 18 19 20 21 22 24 25 25
35 37 34 34 31 30 28 26 26 25 22 17 15 17 17 15 14 8 13 11 6 6 8 6 7 6 8 10 12 14 15 16 16 17 17 19 19 20 21 23 23 24 26
37 38 37 35 33 32 31 29 26 25 24 21 18 15 11 8 7 9 9 4 5 8 10 8 7 5 6 10 13 16 19 18 18 18 18 19 19 21 22 23 24 24 25
39 40 39 36 34 34 32 30 27 26 24 23 19 18 18 17 16 14 15 12 8 8 9 9 8 9 5 12 15 19 18 20 21 22 22 19 19 21 23 23 24 25 25
39 38 36 35 35 34 30 28 27 25 24 23 21 18 16 15 14 13 12 13 9 10 10 10 6 8 11 14 17 18 19 20 21 23 23 24 21 20 22 23 24 25 26
35 35 35 32 32 30 29 27 26 26 24 22 20 18 15 13 12 12 12 10 10 5 5 10 6 6 13 18 17 19 20 21 21 21 23 24 27 23 24 26 25 26 27
32 33 32 33 32 30 27 26 25 24 22 20 18 16 14 12 13 12 11 11 10 10 10 9 6 12 20 22 16 20 21 21 20 20 23 27 28 29 27 24 25 26 27
34 34 34 35 34 31 28 29 27 24 22 19 16 15 14 16 11 11 11 12 10 9 13 16 12 11 15 19 20 21 21 21 18 21 23 26 30 30 30 30 26 26 26
39 38 36 38 36 34 34 34 29 25 23 18 15 15 16 14 14 11 10 9 11 13 15 14 13 13 15 16 16 21 23 23 21 22 21 26 27 28 28 28 28 29 29
42 40 39 37 37 37 34 31 28 24 19 16 18 17 14 13 11 9 11 13 10 10 9 12 14 15 12 14 17 19 20 21 24 22 24 27 24 22 23 24 28 25 27
43 41 38 38 37 34 35 31 28 24 19 20 18 17 16 13 15 17 19 14 13 13 13 13 14 13 15 16 17 18 22 27 27 27 28 25 22 24 26 30 20 21 21
44 40 38 36 35 36 35 31 25 20 20 21 22 18 19 18 20 20 18 18 18 17 16 17 15 17 16 17 17 21 27 30 31 29 22 22 28 34 31 26 25 20 25
43 40 38 38 40 37 31 27 24 25 24 21 17 19 16 18 17 18 18 18 18 18 17 17 17 18 17 16 19 25 29 31 35 29 26 35 31 30 32 26 27 28 24
45 42 40 39 38 35 30 28 25 25 22 22 20 16 15 14 15 16 17 16 16 16 17 16 16 16 17 19 24 28 29 30 32 33 28 33 32 31 30 34 28 25 31
45 42 40 38 39 33 30 28 26 24 22 18 15 14 13 14 16 16 14 14 13 13 14 16 17 18 20 23 25 26 27 29 30 27 22 32 35 37 35 37 39 39 31
40 39 38 40 34 31 27 25 25 22 20 18 15 16 16 18 18 15 12 11 13 13 12 15 18 18 23 23 19 20 26 28 32 28 26 31 31 39 44 45 35 20 18
39 36 37 33 32 30 26 24 21 19 17 14 14 14 15 19 15 12 11 12 13 13 15 16 19 21 18 17 17 20 24 24 29 36 23 33 40 35 34 34 17 42 41
Wind_Direction
196 191 193 189 178 204 193 209 199 196 190 180 166 161 167 173 280 325 352 13 29 35 32 29 31 44 42 6 350 353 352 352 349 346 342 341 337 321 307 308 311 294 287
199 195 194 189 198 192 197 203 195 192 197 184 178 158 164 170 182 303 337 3 25 37 31 29 26 23 13 350 356 355 353 352 351 347 343 340 338 335 324 303 297 300 292
200 202 197 198 198 201 204 202 194 196 186 180 176 174 185 197 171 167 301 340 3 17 23 22 10 353 344 353 352 354 353 350 349 346 346 343 340 340 331 317 306 281 282
204 202 202 200 205 199 198 194 191 176 181 170 139 127 218 245 198 190 178 193 327 358 10 6 4 357 348 344 347 355 356 356 356 355 354 349 344 342 342 335 323 314 297
205 204 203 206 203 198 199 193 183 188 179 185 175 182 196 268 113 240 298 313 158 177 329 1 359 359 346 342 339 347 351 352 349 350 349 349 349 349 343 338 336 323 314
206 204 207 209 203 201 202 198 192 186 186 180 189 187 173 191 216 256 130 289 338 331 357 0 350 352 337 330 339 340 345 351 351 349 346 344 343 343 342 339 339 335 325
205 205 211 205 204 205 205 205 198 191 186 186 192 202 207 232 223 244 197 229 292 311 336 349 179 312 350 319 339 351 348 348 349 348 347 348 347 345 344 342 336 337 336
207 208 213 206 205 205 208 206 199 192 193 188 188 195 201 221 240 200 236 258 246 242 306 307 285 239 226 289 314 350 346 342 344 345 341 340 344 340 340 340 341 338 334
208 209 211 207 204 211 212 206 201 203 202 198 185 189 206 205 194 218 237 251 278 269 255 302 302 291 288 294 312 332 337 344 344 343 342 338 339 336 333 333 337 334 335
209 209 209 209 210 211 210 206 204 199 210 209 201 206 204 166 182 178 227 260 281 289 272 214 277 301 308 307 316 339 344 343 339 343 339 334 337 335 332 328 330 331 329
209 210 209 211 210 209 211 208 205 203 205 214 209 212 216 221 216 182 187 215 258 275 289 288 246 248 289 311 308 322 333 339 338 336 336 335 335 329 328 327 326 327 326
211 211 211 212 210 211 211 211 207 205 200 205 203 210 210 208 226 218 205 198 201 204 250 279 290 265 295 300 307 320 326 329 336 335 334 333 333 328 325 324 323 323 322
213 213 212 211 209 212 213 210 206 205 203 205 208 207 208 213 214 220 214 193 212 203 246 291 255 268 271 279 297 312 329 329 331 331 336 332 328 325 323 322 321 320 320
219 215 212 210 210 213 212 208 207 206 204 206 205 209 215 219 221 222 209 210 220 230 246 245 260 291 278 288 304 313 320 320 329 327 326 330 328 324 319 321 320 319 318
223 220 213 208 214 214 210 207 204 204 205 207 206 206 212 215 222 221 216 216 208 195 183 204 208 260 278 293 304 309 314 316 320 324 323 324 324 326 320 319 318 316 316
219 219 214 208 212 212 209 207 204 203 202 202 202 198 209 222 225 226 223 219 217 207 214 181 211 266 275 287 303 296 308 311 318 322 318 317 319 322 321 318 314 312 312
217 217 215 214 219 218 211 211 210 206 201 201 202 202 225 229 226 226 224 215 219 229 244 242 247 269 283 295 298 301 305 308 310 306 311 314 317 320 322 325 319 315 312
217 221 217 214 215 219 214 210 205 198 196 198 208 221 217 219 217 222 225 212 222 231 246 258 260 274 277 292 304 303 303 303 300 304 302 306 308 312 315 317 319 322 319
213 215 218 216 216 212 200 200 198 193 191 204 208 218 213 214 221 216 230 218 233 238 254 269 278 272 289 286 286 286 290 286 287 295 289 297 307 310 306 302 311 314 313
213 213 219 219 215 204 198 197 193 194 215 209 221 206 214 224 211 210 226 224 231 236 238 251 260 272 269 272 275 287 281 284 290 299 304 308 309 289 291 304 308 303 307
215 217 216 213 205 199 200 197 201 206 206 208 206 198 232 231 223 230 237 233 227 234 235 243 247 255 264 272 284 285 283 289 298 308 310 292 300 300 308 308 307 301 295
214 217 213 210 202 203 204 204 209 208 205 209 205 227 221 226 227 233 233 239 243 250 259 262 264 268 273 277 281 283 291 303 309 310 293 303 309 312 308 309 301 305 296
213 215 215 210 204 206 205 205 202 199 197 211 216 208 218 224 233 236 239 245 252 256 259 264 271 278 282 284 282 292 297 298 299 305 317 312 313 306 304 305 305 292 290
212 216 213 206 205 207 208 198 197 200 202 200 193 214 222 238 244 239 242 253 265 270 283 290 291 291 287 288 290 295 302 307 306 308 312 302 307 306 305 298 301 305 307
211 211 208 201 205 204 197 194 200 199 203 199 201 212 223 235 242 254 249 251 258 262 265 275 285 295 301 304 300 306 307 310 311 310 310 306 308 303 303 305 314 313 297
210 206 202 205 206 198 194 200 201 201 198 196 202 215 218 232 246 259 261 263 266 264 274 277 280 289 290 304 313 297 298 295 299 304 311 308 309 316 315 317 297 309 315